sat.trackr.live / text

‹ back to catalog

STARLINK-5443

NORAD 54781 · 2022-175Z

PAYLOAD ACTIVE UNKNOWN

§ Identity

Operator
Country
US
Launch date
2022-12-17
Launch site
AFETR
Launch vehicle
Mass (kg)
RCS (m²)

Purposes: comms

External: N2YO · Heavens-Above · Gunter

§ Orbital elements

Epoch: 2026-05-24T23:04:43.639680Z

Period
95.44 min
Inclination
53.2135°
Eccentricity
0.0001492
Mean motion
15.08844156 rev/d
Perigee alt
538.7 km
Apogee alt
540.8 km
Semi-major
6,917.9 km
B*
-6.9297e-5
RAAN
46.7375°
Arg perigee
67.9123°
Mean anomaly
292.2028°
Rev number
19,164

§ Raw data

STARLINK-54431 54781U 22175Z   26144.96161620 -.00001391  00000+0 -69297-4 0  99922 54781  53.2135  46.7375 0001492  67.9123 292.2028 15.08844156191640

JSON: /api/v1/satellites/54781 · /tle

For live sub-satellite position, see the globe view (requires WebGL).

§ Visibility from observer

Set your observer location to see the next 7 days of passes ≥ 10°. The values pass through the URL so the page stays shareable.

No JS? Fill the form by hand. The geolocation button needs JavaScript.